Temp
14 14 14 14 14 14 13 13 13 13 13 13 14 14 14 14 13 13 13 13 13 13 12 12 12 13 13 14 14 14 14 14 14 13 13 13 13 13 13 13 13 13 13 13 13 13 13 13 13 13 12 12 12 12 12 12 12 12 12 12 12 11 11 11 11 11 11 12 12
13 13 13 13 13 13 12 12 13 13 13 13 13 13 12 12 12 12 12 12 12 12 12 12 12 13 13 14 14 14 14 14 14 13 13 13 13 13 13 13 13 13 13 13 13 13 13 13 13 12 12 12 12 12 12 12 12 12 12 12 11 11 11 11 11 11 11 11 11
12 12 12 12 12 12 12 12 12 12 12 12 12 12 12 11 12 12 12 12 12 12 12 12 12 13 13 14 14 14 14 13 13 13 13 13 13 13 13 13 13 13 13 13 13 13 13 13 13 13 12 12 12 12 12 12 12 12 12 11 11 11 11 11 11 11 11 11 11
11 11 11 10 11 11 11 11 11 11 11 11 11 11 11 12 12 11 11 11 11 12 12 12 12 12 13 13 13 13 13 13 13 13 13 13 13 13 13 13 13 13 13 13 13 13 13 13 13 13 12 12 12 12 12 12 12 12 12 11 11 11 10 10 10 11 11 11 11
10 10 10 9 9 10 10 10 10 10 10 10 11 11 11 10 10 10 10 10 10 11 11 11 12 12 12 12 12 12 12 12 12 12 13 13 13 13 13 13 13 13 13 13 13 13 13 13 13 12 12 12 12 12 12 12 11 11 11 11 11 11 11 10 10 10 10 10 10
9 9 9 9 9 9 9 10 10 10 10 10 10 9 9 9 9 9 9 9 10 10 11 11 11 11 11 11 11 12 12 12 12 13 13 13 13 13 13 13 13 13 13 13 13 12 12 12 12 12 12 12 12 11 11 11 11 11 11 10 11 11 11 11 11 10 10 9 9
8 8 9 9 9 9 9 9 9 9 9 9 9 9 9 9 9 9 9 9 10 10 10 11 11 11 11 11 12 12 12 12 12 13 13 13 13 13 13 13 12 12 12 12 12 12 12 12 12 12 12 11 11 11 11 11 10 10 10 10 10 10 10 10 10 10 10 10 9
7 7 8 8 8 8 8 8 9 9 9 9 9 8 8 9 9 9 9 10 10 10 10 10 11 11 11 12 12 12 12 12 12 12 12 12 12 12 12 12 12 12 12 12 12 12 12 12 12 11 11 11 11 10 10 10 10 10 10 10 10 10 10 10 10 10 10 10 10
6 7 7 7 7 7 8 8 8 9 8 8 8 8 8 8 9 9 10 10 10 10 10 10 11 11 11 12 12 12 12 12 12 12 12 12 12 12 12 12 12 12 12 11 11 11 11 11 11 11 11 10 10 10 10 10 9 9 9 9 9 9 9 9 9 9 10 10 10
6 7 7 7 7 7 7 7 7 7 7 7 7 7 8 8 9 10 10 10 10 10 10 10 11 11 11 12 12 11 11 11 11 11 11 11 11 11 11 11 11 11 11 11 11 11 11 11 10 10 10 10 10 10 10 10 9 9 9 9 9 9 9 9 9 9 9 8 8
7 7 7 6 6 7 7 7 7 7 7 7 7 8 8 9 9 10 10 10 10 11 11 10 11 11 11 11 11 11 11 11 11 11 11 11 11 11 11 11 11 11 11 11 10 10 10 10 10 10 10 9 9 9 9 9 9 9 9 9 9 9 9 9 8 8 7 7 7
6 6 6 6 6 7 7 7 7 7 7 7 8 8 9 9 9 9 10 10 11 11 10 10 11 11 11 11 11 11 11 11 11 11 11 11 11 11 11 11 10 10 10 10 10 10 10 10 10 10 9 9 9 9 9 9 9 8 8 8 8 8 8 8 7 7 6 6 7
6 6 6 6 6 7 7 7 7 7 7 7 8 8 8 8 9 9 10 11 11 10 10 10 10 11 11 10 10 10 11 11 11 11 11 11 10 10 10 10 10 10 10 10 9 9 9 9 9 9 9 9 8 8 8 8 8 7 7 7 7 7 7 6 7 6 6 6 6
6 6 6 6 6 7 7 7 6 7 7 7 8 8 8 8 8 9 10 10 10 10 10 10 10 10 10 10 10 10 10 10 10 10 10 10 9 9 9 9 9 9 9 8 8 8 8 8 8 8 8 7 7 7 7 7 6 6 6 6 6 5 5 5 6 6 6 6 6
5 5 5 6 6 6 6 6 6 6 7 7 7 8 8 8 8 9 9 9 9 9 9 9 9 9 9 9 9 9 9 9 9 8 8 8 8 8 8 8 7 7 7 7 7 7 7 7 6 6 6 6 6 6 5 5 5 5 5 5 5 4 4 5 5 5 5 5 5
5 5 5 6 6 6 6 6 6 6 7 7 7 8 8 8 8 8 8 8 8 8 8 8 8 8 8 8 8 8 8 7 7 7 7 7 7 7 7 6 6 6 6 6 6 6 6 5 5 5 5 5 5 5 5 4 4 4 4 4 4 4 4 4 4 4 4 4 4
4 5 5 6 6 7 6 6 6 6 6 7 7 7 7 7 7 7 7 7 7 7 7 7 7 7 7 7 7 7 6 6 6 6 6 6 6 6 6 6 5 5 5 5 5 5 5 5 5 4 4 4 4 4 4 4 4 4 4 4 4 4 4 4 3 3 3 4 4
4 4 5 5 6 6 5 5 5 6 6 6 6 6 6 6 6 6 6 6 6 6 6 6 6 6 6 6 6 6 6 6 5 5 5 5 5 5 5 5 5 5 5 5 5 5 4 4 4 4 4 4 3 3 3 3 3 3 3 3 3 3 3 3 3 3 3 3 3
3 4 4 4 4 4 4 4 4 4 4 5 5 5 5 5 5 5 5 5 5 5 5 5 5 5 5 5 5 5 5 5 5 5 5 5 5 5 5 5 5 5 5 5 5 4 4 4 4 4 3 3 3 3 3 3 3 3 3 3 3 3 3 3 3 2 2 3 3
3 3 3 3 3 4 4 4 4 4 4 4 4 4 5 5 5 5 5 5 5 5 5 5 5 5 5 5 5 5 5 5 5 5 5 5 5 5 5 5 5 5 5 5 5 5 4 4 4 3 3 3 2 2 2 2 2 2 2 2 2 2 2 2 2 2 2 2 2
3 3 3 3 3 4 4 4 4 4 4 4 4 4 5 5 5 5 5 5 5 5 5 6 6 6 6 6 6 5 5 5 5 5 6 6 6 6 6 6 6 5 5 5 5 5 5 4 4 3 3 2 2 2 2 2 2 2 2 2 2 2 2 2 2 2 2 2 2
3 3 3 3 4 4 4 4 4 4 4 4 4 5 5 5 5 5 5 5 5 6 6 6 6 6 6 6 6 6 6 6 6 6 6 6 6 6 6 6 6 6 6 5 5 5 5 4 4 3 3 2 2 2 2 2 2 2 2 2 2 2 2 2 2 2 2 2 2
3 3 3 3 4 4 4 4 4 4 4 4 5 5 5 5 5 5 5 5 6 6 6 6 6 6 6 6 6 6 6 6 6 6 5 5 5 5 5 5 5 5 5 5 5 5 4 4 3 3 2 2 2 2 2 2 2 2 2 2 2 2 2 2 2 2 2 2 2
3 3 3 3 3 4 4 4 4 4 5 5 5 5 5 5 5 5 5 5 5 6 5 5 5 5 5 5 5 5 5 6 6 6 5 5 5 5 5 5 5 5 5 5 4 4 3 2 2 2 2 2 2 1 1 1 1 1 1 1 2 2 2 2 2 2 2 1 1
3 3 3 3 3 4 4 4 4 4 4 4 5 5 5 5 5 5 5 5 5 5 5 5 5 5 5 5 5 5 5 5 5 5 5 5 5 5 5 5 5 4 4 4 4 3 2 1 1 1 1 1 1 1 1 1 1 1 1 1 1 1 1 1 1 1 1 1 1
3 3 3 3 4 4 4 4 4 4 4 4 5 5 5 5 5 5 5 5 5 5 5 5 5 5 5 4 4 4 4 4 5 5 5 5 5 4 4 4 4 3 3 3 2 2 1 1 1 1 1 1 1 1 1 1 1 1 1 1 1 1 1 1 1 1 0 0 0
3 3 3 4 4 4 4 4 4 5 5 5 5 5 5 5 5 5 5 5 5 5 5 5 5 4 4 4 4 4 4 4 4 4 4 3 3 3 3 3 2 2 2 2 1 1 1 0 1 1 1 1 1 1 1 1 0 0 0 0 0 0 0 0 0 0 0 -0 -0
3 3 4 4 4 4 4 4 5 5 4 4 4 4 4 5 5 5 5 5 5 5 4 4 4 4 4 4 3 3 3 3 3 3 3 2 2 2 2 2 2 2 2 1 1 1 0 0 0 0 1 1 1 1 0 0 0 0 0 0 0 0 -0 -0 -0 -0 -0 -0 -1
3 3 4 4 4 4 4 4 4 4 4 4 4 4 4 4 4 4 4 4 4 4 4 3 3 3 3 3 2 2 2 2 2 2 2 2 2 2 2 2 2 2 2 1 1 1 1 0 0 0 0 1 0 0 0 0 0 0 -0 -0 -0 -0 -0 -1 -1 -1 -1 -1 -1
3 3 3 3 3 3 3 3 3 3 3 3 3 3 3 3 3 3 3 3 2 2 2 2 2 2 2 2 2 2 2 2 1 2 2 2 3 3 2 2 2 2 2 2 1 1 0 0 0 0 0 0 0 0 0 0 -0 -0 -0 -0 -1 -1 -1 -1 -1 -1 -1 -1 -1
2 2 2 2 2 2 2 2 2 2 2 2 2 2 2 2 2 2 2 1 1 1 1 1 1 1 1 1 2 2 2 2 2 2 2 2 2 2 2 2 2 2 2 1 1 0 -0 -0 -0 -0 -0 0 0 -0 -0 -0 -0 -1 -1 -1 -1 -1 -1 -1 -1 -1 -1 -1 -1
2 2 2 2 2 2 2 1 1 1 1 1 1 1 1 1 1 1 1 1 1 1 1 1 2 2 2 2 2 2 2 2 2 2 1 2 2 2 2 2 1 1 1 1 -0 -0 -1 -1 -1 -0 -0 -0 -0 -0 -0 -1 -1 -1 -1 -1 -1 -1 -1 -1 -1 -1 -1 -1 -1
1 1 1 1 1 1 1 1 1 1 1 1 1 1 1 1 1 1 1 1 1 1 1 1 1 2 2 2 2 2 2 1 1 1 1 1 1 1 1 1 1 0 0 -0 -1 -1 -1 -1 -1 -1 -0 -0 -0 -0 -1 -1 -1 -1 -1 -1 -1 -1 -1 -1 -1 -1 -1 -1 -1
1 1 1 1 1 1 1 1 1 1 1 1 1 1 1 1 1 2 2 2 2 1 1 1 1 1 1 1 1 1 1 1 0 0 0 -0 -0 -0 0 0 -0 -0 -1 -1 -1 -1 -1 -1 -1 -1 -1 -0 -1 -1 -1 -1 -1 -1 -1 -1 -1 -1 -1 -1 -1 -1 -1 -1 -1
1 1 1 1 1 1 1 1 1 1 1 2 2 2 2 2 2 2 2 2 2 1 1 1 1 1 0 0 0 -0 -0 -0 -0 -0 -1 -1 -1 -1 -1 -0 -0 -1 -1 -2 -2 -2 -1 -1 -1 -1 -1 -1 -1 -1 -1 -1 -1 -1 -1 -1 -1 -1 -1 -1 -1 -1 -1 -1 -1
1 1 1 1 1 1 1 1 1 2 2 2 2 2 2 2 1 1 1 1 1 1 1 0 0 -0 -0 -0 -1 -1 -1 -1 -1 -1 -1 -1 -1 -1 -1 -1 -1 -1 -1 -2 -2 -2 -2 -1 -1 -1 -1 -1 -1 -1 -1 -1 -1 -1 -1 -1 -1 -1 -1 -1 -1 -1 -1 -1 -1
1 1 1 1 1 1 1 1 2 2 2 1 1 1 1 1 1 1 0 0 0 0 -0 -0 -1 -1 -1 -1 -1 -1 -1 -2 -2 -2 -2 -2 -2 -2 -2 -1 -1 -1 -1 -2 -2 -2 -2 -2 -1 -1 -1 -1 -1 -1 -1 -1 -1 -1 -1 -1 -1 -1 -1 -1 -1 -1 -1 -1 -1
1 1 1 1 1 1 1 1 1 1 1 1 1 0 0 0 -0 -0 -0 -1 -1 -1 -1 -1 -1 -2 -2 -2 -2 -2 -2 -2 -2 -2 -2 -2 -2 -2 -2 -2 -1 -1 -1 -2 -2 -2 -2 -2 -2 -1 -1 -1 -1 -1 -1 -1 -1 -1 -1 -1 -1 -1 -1 -1 -1 -1 -1 -1 -1
1 1 1 1 1 1 1 1 1 1 0 0 -0 -0 -0 -1 -1 -1 -1 -2 -2 -2 -2 -2 -2 -2 -2 -2 -2 -2 -2 -2 -2 -2 -2 -2 -2 -2 -3 -2 -2 -2 -2 -2 -2 -2 -2 -2 -2 -1 -1 -1 -1 -1 -1 -1 -1 -1 -1 -1 -1 -1 -1 -1 -1 -1 -1 -1 -1
1 1 1 1 1 1 1 1 0 0 -0 -0 -1 -1 -1 -1 -1 -2 -2 -2 -2 -2 -2 -2 -2 -2 -2 -2 -2 -2 -2 -2 -2 -2 -2 -2 -3 -3 -3 -3 -3 -2 -2 -2 -2 -3 -3 -2 -2 -1 -1 -1 -1 -1 -1 -1 -1 -1 -1 -1 -1 -1 -1 -2 -2 -2 -2 -2 -2
1 1 1 1 1 1 1 0 -0 -0 -1 -1 -1 -1 -2 -2 -2 -2 -2 -2 -2 -2 -2 -2 -2 -2 -3 -3 -3 -3 -2 -2 -2 -2 -2 -3 -3 -3 -3 -3 -3 -3 -2 -2 -3 -3 -3 -2 -2 -1 -1 -1 -1 -1 -1 -1 -1 -1 -1 -2 -2 -2 -2 -2 -2 -2 -2 -2 -2
Height
737 737 738 739 740 741 741 741 741 741 742 743 744 745 747 749 750 751 752 754 755 757 757 757 758 758 758 758 758 758 760 763 766 768 770 772 773 773 773 774 774 774 775 775 776 777 778 778 778 779 779 780 780 781 781 781 781 781 780 780 780 780 780 780 780 779 779 779 778
736 736 737 738 738 738 739 740 740 741 742 743 743 744 746 748 748 749 750 752 753 754 756 757 757 756 756 756 758 760 763 765 767 769 770 771 772 772 773 773 773 774 775 775 776 777 777 778 778 778 779 779 780 780 780 780 780 780 780 779 779 779 779 779 778 778 778 778 777
735 735 736 737 738 738 739 739 741 743 743 744 745 746 747 748 748 749 751 753 754 755 756 756 756 756 756 758 761 763 765 767 768 769 770 771 771 772 772 773 774 775 776 776 776 777 777 777 778 778 778 778 779 779 779 779 779 779 778 778 778 778 778 777 777 777 777 776 776
736 736 737 738 738 738 739 740 742 744 745 746 746 747 747 748 750 751 753 755 755 755 756 757 757 757 759 762 764 766 767 768 769 770 771 771 772 772 773 774 775 775 776 776 776 776 777 777 777 778 778 778 778 778 778 778 778 778 777 777 777 777 776 776 776 776 776 776 776
737 737 738 738 739 739 740 741 743 745 746 747 747 748 749 750 752 754 755 755 755 756 757 757 758 760 762 764 766 768 769 770 770 771 771 772 772 773 773 774 774 775 775 775 776 776 776 776 777 777 777 777 777 778 777 777 776 776 776 776 776 775 775 775 775 775 775 775 775
738 738 738 739 740 741 743 743 744 745 747 748 748 750 751 753 754 755 755 755 756 757 758 759 760 763 765 766 768 769 770 770 770 770 771 771 772 773 773 773 774 774 774 775 775 775 775 775 776 776 776 776 776 776 776 775 775 775 775 775 775 775 775 775 775 775 775 775 775
738 738 739 741 743 744 745 745 745 746 747 749 750 752 753 754 755 755 756 756 757 758 759 761 763 765 766 768 768 769 769 769 769 770 770 771 771 772 772 773 773 773 773 774 774 774 774 774 774 774 775 775 775 775 775 775 775 775 774 774 774 775 775 775 775 775 775 774 774
739 739 741 743 745 747 748 747 747 748 749 751 752 754 755 756 756 757 757 758 759 760 762 763 765 766 766 767 767 768 768 768 769 769 770 770 771 771 772 772 773 773 773 773 773 773 773 773 774 774 774 774 774 774 774 774 774 774 774 774 774 774 775 775 775 775 774 774 774
740 742 743 746 748 749 749 749 750 751 752 754 755 756 757 758 758 758 759 760 761 762 763 764 765 765 766 766 766 767 768 768 768 769 770 770 771 771 772 772 772 773 773 773 773 773 773 773 773 774 774 774 774 774 774 774 774 774 774 773 773 773 773 773 773 773 773 773 773
743 745 747 748 750 751 752 752 753 754 755 757 758 759 759 760 760 760 761 762 762 763 763 764 765 765 765 766 766 767 768 768 769 769 770 770 771 771 772 772 772 772 773 773 773 773 773 773 774 774 774 774 774 773 773 773 773 773 773 773 773 773 773 773 773 773 773 772 772
746 748 750 752 753 754 754 755 756 757 758 759 760 761 761 761 761 761 762 763 763 763 763 764 765 765 766 766 767 768 768 769 769 770 770 771 771 771 772 772 772 773 773 773 773 773 773 774 774 774 774 774 773 773 773 773 773 773 773 773 772 772 772 772 772 772 772 772 772
750 751 753 754 755 756 757 758 759 760 761 761 762 762 761 762 762 762 763 763 763 763 764 765 765 766 766 767 768 768 769 769 770 770 771 771 771 772 772 772 773 773 773 773 773 773 773 773 773 773 773 773 773 773 773 773 773 773 773 772 772 772 772 772 772 771 771 771 771
753 754 755 756 757 758 758 759 760 761 762 762 762 762 762 762 763 763 763 763 764 764 765 766 766 767 767 768 768 769 769 770 770 771 771 772 772 772 773 773 773 773 773 773 773 773 773 773 773 773 773 773 773 773 773 773 773 773 773 772 772 772 772 771 771 771 771 771 771
756 756 757 758 759 759 759 760 761 761 762 762 762 762 763 763 763 764 764 764 765 765 766 767 767 768 768 768 769 769 770 771 771 771 772 772 773 773 773 773 773 773 773 774 774 773 773 773 773 773 773 773 773 773 773 773 773 773 772 772 772 772 771 771 771 771 770 770 769
757 758 758 759 759 759 760 760 761 761 762 762 763 763 763 763 764 765 765 765 766 766 767 767 768 768 769 769 770 771 771 772 772 772 773 773 773 773 773 774 774 774 774 774 774 773 773 773 773 773 773 773 773 773 773 772 772 772 772 772 771 771 771 770 770 770 769 769 768
758 759 759 759 759 759 760 760 761 762 762 763 763 764 764 765 765 766 766 766 767 768 768 768 769 770 770 771 771 772 772 772 773 773 773 773 774 774 774 774 774 774 774 774 773 773 773 773 773 773 773 772 772 772 772 772 771 771 771 771 770 770 770 769 769 768 768 768 767
759 760 760 760 760 760 761 762 763 763 764 764 765 765 766 766 767 767 768 768 768 769 769 770 771 771 771 772 772 773 773 773 773 773 773 774 774 774 774 774 774 774 773 773 773 773 773 773 772 772 772 772 771 771 771 770 770 770 770 769 769 769 768 768 768 767 767 766 766
760 761 761 761 762 762 763 764 764 765 766 766 767 767 768 768 768 769 769 770 770 770 771 771 772 772 772 773 773 773 773 773 773 773 774 774 774 774 774 774 773 773 773 773 772 772 772 772 771 771 771 770 770 770 770 769 769 769 768 768 768 767 767 767 766 766 765 764 764
762 763 763 763 764 765 765 766 767 767 768 768 768 769 769 770 770 770 771 771 771 772 772 772 772 773 773 773 773 773 773 773 773 773 773 774 774 773 773 773 773 773 772 772 772 771 771 770 770 770 770 769 769 769 768 768 768 767 767 767 766 766 765 765 764 764 763 763 763
764 765 765 766 766 767 767 768 768 769 769 769 770 770 770 771 771 771 771 772 772 772 772 772 772 773 773 773 773 773 773 773 773 773 773 773 773 773 773 773 772 772 771 771 771 770 770 769 769 769 768 768 768 768 767 767 766 766 765 765 765 764 764 763 763 763 762 762 761
766 766 767 768 768 768 769 769 769 770 770 770 770 771 771 771 771 772 772 772 772 772 772 772 772 772 772 772 773 773 773 773 773 773 773 773 773 773 772 772 771 771 771 770 770 769 769 768 768 768 768 767 767 767 766 766 765 764 764 764 763 763 762 762 761 761 760 760 759
768 768 769 769 769 769 770 770 770 771 771 771 771 771 771 771 772 772 772 772 772 772 772 772 772 772 772 773 773 773 773 773 774 773 773 773 773 772 772 771 771 770 770 769 769 768 768 768 767 767 767 766 766 765 765 764 764 763 763 762 762 761 761 760 760 759 759 758 758
769 770 770 770 771 771 771 771 771 771 771 771 772 772 772 772 772 772 772 772 772 772 772 772 773 773 773 773 773 774 774 774 774 774 773 773 772 772 771 771 770 770 769 768 768 768 767 767 767 766 766 766 765 765 764 763 763 762 762 761 760 760 759 759 758 758 758 757 757
771 771 771 772 772 772 772 772 772 772 772 772 772 772 772 772 773 773 773 773 773 773 773 773 773 774 774 774 774 774 774 774 774 773 773 773 772 771 771 770 769 769 768 768 767 767 767 766 766 765 765 765 764 764 763 763 762 761 761 760 759 758 758 758 757 757 756 756 755
772 772 772 772 772 772 772 772 772 772 772 773 773 773 773 773 773 773 773 774 774 774 774 774 775 775 775 775 775 774 774 773 773 772 772 771 771 770 770 769 768 768 767 767 766 766 766 766 765 765 764 764 763 763 762 761 761 760 759 758 758 757 756 756 755 755 754 754 753
772 772 772 772 772 772 772 772 773 773 773 773 773 773 773 774 774 774 774 774 774 775 775 775 775 775 775 774 774 774 773 773 772 771 771 770 769 769 768 768 767 767 766 765 765 765 765 765 764 764 763 762 762 761 760 759 759 758 758 757 756 756 755 754 753 753 752 752 751
772 772 773 773 773 773 773 773 773 773 773 774 774 774 774 774 775 775 775 775 775 775 775 775 775 774 774 774 773 773 772 771 771 770 769 768 768 767 767 766 765 765 764 764 764 763 763 763 763 762 762 761 760 759 758 758 757 757 756 755 755 754 753 753 752 751 750 749 749
773 774 774 774 774 774 774 774 774 774 775 775 775 775 775 775 775 775 775 775 775 775 775 774 774 774 773 773 772 772 771 770 769 768 768 767 766 766 765 764 764 763 763 763 762 762 762 761 761 761 760 760 759 758 757 757 756 755 755 754 753 753 752 752 751 750 749 748 747
776 776 776 776 776 776 776 776 776 776 776 776 776 776 776 776 776 776 775 775 775 774 774 774 773 773 772 771 771 770 769 768 768 767 766 765 765 764 764 763 763 762 762 761 761 761 760 760 759 759 759 758 758 757 756 755 755 754 753 753 752 752 751 750 750 749 748 747 746
778 778 778 778 778 777 777 777 777 777 777 777 777 777 776 776 776 775 775 774 774 773 773 773 772 771 771 770 769 768 768 767 766 766 765 764 763 763 763 762 762 761 761 760 760 759 759 759 758 758 758 757 757 756 755 754 754 753 753 752 751 751 750 749 748 748 747 746 745
779 778 778 778 778 778 778 778 778 778 777 777 777 776 776 775 775 774 774 773 773 772 772 771 770 770 769 768 768 767 767 766 765 765 764 763 763 762 762 761 761 760 760 759 759 758 758 758 757 757 756 756 755 755 754 753 753 752 752 751 750 749 749 748 748 747 746 745 744
779 778 778 778 778 778 778 778 777 777 777 776 776 775 775 774 773 773 773 772 771 771 770 769 769 768 768 767 767 766 766 765 764 764 763 763 762 761 761 760 760 759 759 758 758 758 757 757 756 756 755 755 754 754 753 753 752 751 750 749 749 748 748 747 746 745 744 744 743
778 778 778 778 777 777 777 777 777 776 776 775 774 773 773 773 772 772 771 770 770 769 769 768 768 767 767 766 766 765 765 764 764 763 763 762 762 761 760 760 759 758 758 757 757 757 756 756 755 755 754 754 753 753 752 751 750 749 749 748 747 747 746 745 745 744 743 742 742
778 777 777 777 777 776 776 776 775 775 774 773 773 772 772 771 771 770 770 769 769 769 768 768 768 767 766 766 765 765 764 764 763 763 762 762 761 760 759 759 758 758 757 757 756 756 755 755 754 754 753 753 752 751 750 749 749 748 747 746 746 745 744 744 743 742 741 741 740
777 777 776 776 775 775 775 774 774 773 773 772 771 771 771 770 770 770 769 769 769 768 768 768 767 767 766 766 765 764 764 763 763 762 762 761 760 759 759 758 757 757 756 756 755 755 754 754 753 753 752 751 750 750 749 748 747 746 746 745 744 743 743 742 741 740 740 739 738
776 776 775 775 774 774 773 773 773 772 772 771 771 770 770 770 770 770 769 769 768 768 768 767 767 766 766 765 764 764 763 763 762 761 761 760 759 759 758 757 756 756 755 755 754 753 753 753 752 751 751 750 749 748 748 747 746 745 744 743 742 741 741 740 739 738 738 737 736
775 774 774 774 773 773 773 772 772 772 771 771 771 771 771 770 770 770 769 769 768 768 767 767 766 766 765 764 764 763 763 762 761 761 760 759 759 758 757 756 755 754 754 753 753 752 752 751 751 750 749 748 748 747 746 745 744 743 742 741 740 740 739 738 738 737 736 735 734
774 774 774 773 773 773 773 773 772 772 772 772 772 771 771 771 770 770 769 769 768 767 767 766 765 765 764 764 763 762 762 762 761 760 759 758 758 757 756 754 753 753 753 752 752 751 750 750 749 749 748 747 746 745 744 743 742 742 741 740 739 738 737 737 736 735 734 733 733
774 774 774 773 773 773 773 773 773 772 772 772 772 771 771 771 770 770 769 768 768 767 766 765 765 764 764 763 762 761 761 760 760 759 758 757 757 756 755 753 753 752 751 751 750 749 749 748 748 747 747 746 745 744 743 742 741 740 739 738 737 736 735 735 734 733 732 731 731
774 774 774 774 773 773 773 773 773 773 773 772 772 771 771 770 770 769 768 768 767 767 766 765 764 763 763 762 761 760 759 759 758 758 757 756 755 754 753 753 751 750 750 749 749 748 748 747 747 746 745 744 743 743 742 741 739 738 738 737 736 734 733 732 732 731 730 729 728
774 774 774 774 774 773 773 773 773 773 773 772 772 771 770 770 769 768 768 767 767 766 765 764 763 762 762 761 760 759 758 757 757 756 756 755 754 753 752 751 750 749 748 748 747 747 746 746 745 744 744 743 742 741 740 739 738 737 736 735 734 733 731 730 729 728 728 727 726
Wind_Speed
10 14 17 17 15 10 7 8 8 8 8 8 8 10 12 12 9 9 10 12 12 11 9 8 9 10 9 8 7 7 7 6 6 6 7 7 6 5 4 3 3 3 3 3 3 3 4 4 5 5 5 5 6 6 7 7 7 8 8 9 10 10 10 10 10 10 10 11 12
9 10 10 12 12 13 16 17 16 15 14 13 13 13 14 15 17 17 16 15 15 15 14 12 11 11 10 8 7 6 5 5 6 7 7 6 5 4 3 2 2 2 3 4 4 4 5 5 6 6 6 6 6 7 8 9 10 10 10 11 10 10 10 11 11 12 12 12 12
18 18 18 19 20 20 20 20 18 19 20 20 20 20 20 20 20 20 19 18 18 17 17 16 15 13 12 11 9 8 8 7 8 8 7 5 4 3 3 3 3 4 5 6 6 7 8 8 8 8 8 7 7 8 9 10 11 12 13 12 11 11 11 12 12 13 13 13 14
25 26 26 26 26 26 25 24 23 24 25 24 24 23 22 22 22 22 21 21 21 20 19 18 17 16 14 12 10 9 8 7 6 6 4 3 3 3 4 5 6 6 7 8 8 9 10 10 11 10 10 8 7 7 9 11 12 14 14 14 13 12 12 12 12 13 14 14 15
29 29 29 29 29 29 28 28 27 27 26 25 25 25 25 25 24 24 23 23 23 22 20 19 17 16 13 11 8 7 7 6 6 5 4 3 4 5 5 6 7 7 8 8 9 9 10 11 11 11 10 9 7 7 8 9 11 13 14 14 14 14 14 13 13 13 13 14 14
31 31 31 30 30 29 28 28 28 27 27 26 27 27 27 26 25 24 23 23 22 20 18 17 16 14 12 10 9 9 9 8 7 6 5 4 4 5 5 6 6 7 7 8 8 9 9 10 10 10 10 10 9 9 10 11 11 12 13 14 15 15 14 14 14 14 14 14 15
32 32 32 30 29 29 29 29 29 28 28 27 27 27 26 24 23 23 22 21 20 18 17 16 15 14 13 12 11 10 9 8 6 5 4 4 4 4 5 5 6 6 6 7 7 8 9 9 9 9 9 10 10 12 13 13 12 11 11 11 13 13 14 14 14 15 15 15 16
33 33 33 31 30 29 29 29 28 28 27 26 26 25 24 22 22 21 20 20 19 18 16 15 14 13 12 11 10 8 7 6 5 4 3 3 3 3 4 4 5 5 6 6 7 8 9 9 9 9 8 9 9 11 13 14 13 13 12 12 12 11 11 11 12 13 14 14 14
33 33 32 30 29 28 28 27 27 27 26 25 24 23 22 21 21 20 19 19 18 17 16 14 13 11 10 9 8 7 6 5 4 3 2 2 2 2 2 3 4 4 5 6 7 7 8 8 8 8 9 9 8 9 11 12 12 13 13 14 14 14 14 14 13 14 14 14 15
32 31 30 29 28 27 27 27 26 26 25 24 23 22 21 20 20 19 18 18 16 15 14 13 11 9 8 8 7 6 5 4 4 3 2 0 0 1 2 3 3 4 5 6 6 7 7 7 7 7 8 8 8 9 9 10 10 10 11 13 14 15 16 16 16 16 17 17 17
30 29 28 27 26 25 25 25 25 24 24 23 22 21 20 19 19 18 17 15 15 14 13 11 9 8 8 7 7 6 5 4 3 2 2 2 2 3 3 4 5 5 5 6 6 7 7 7 7 7 7 8 8 8 9 9 9 10 10 12 13 14 14 15 15 15 15 16 16
27 26 26 25 24 23 23 24 23 23 22 22 21 20 20 19 18 16 14 13 13 13 12 10 9 8 7 7 6 5 4 4 3 3 3 3 3 4 4 5 5 5 6 6 7 7 7 8 8 8 8 8 9 9 9 10 10 10 10 11 12 13 13 13 13 12 12 12 13
26 25 25 24 24 24 24 24 23 23 22 22 21 20 19 18 16 15 13 13 13 12 11 10 8 8 7 7 6 5 4 3 3 3 3 3 3 4 4 4 5 5 6 6 7 7 7 8 8 9 9 9 9 9 9 9 10 10 10 11 11 12 12 12 11 11 10 10 12
26 25 25 24 24 24 25 25 24 23 22 22 21 20 19 18 16 15 14 14 13 12 11 10 9 8 8 7 6 5 4 4 3 3 3 3 3 3 3 3 4 4 5 5 6 6 6 7 7 7 8 8 8 8 8 9 9 9 9 10 10 11 11 11 11 11 11 11 12
26 26 25 25 25 25 25 25 25 24 23 22 21 20 19 18 17 15 14 14 13 12 11 10 10 9 8 8 7 6 6 5 5 5 4 4 4 4 4 4 4 4 4 4 4 4 5 5 5 6 6 7 7 7 7 8 8 8 9 9 10 10 11 11 12 12 12 13 13
27 26 26 26 26 26 26 25 24 23 22 22 20 19 18 18 17 16 15 15 14 13 12 12 12 11 10 9 9 8 8 7 7 7 6 6 6 6 5 5 5 5 5 4 4 4 4 4 4 5 5 6 6 7 7 8 8 8 9 9 10 10 11 12 12 12 13 14 15
28 27 27 27 26 26 25 25 24 23 22 21 20 19 18 18 17 16 16 15 14 14 14 13 12 12 11 11 10 10 9 9 8 8 8 8 7 7 7 6 6 6 5 5 4 4 4 4 4 4 5 6 7 7 8 8 9 9 10 10 11 11 12 12 13 13 14 14 15
28 28 27 27 27 26 25 24 23 22 21 21 20 19 18 18 17 17 16 15 15 14 14 14 13 12 12 12 11 11 10 10 9 9 8 8 8 7 7 7 7 7 6 6 6 5 5 5 5 6 7 7 8 9 9 10 11 11 11 12 12 12 13 13 13 14 14 15 16
29 28 27 27 27 26 25 24 23 22 21 20 20 19 18 18 17 17 16 16 15 14 14 14 13 12 12 12 11 11 10 10 10 9 9 8 8 8 8 8 8 7 7 7 7 7 7 7 8 8 9 10 10 11 11 12 12 13 13 14 14 14 14 14 15 15 15 16 16
28 27 27 26 25 25 24 23 22 21 20 20 19 18 18 17 16 16 16 15 14 14 13 13 13 12 12 11 11 11 10 10 9 9 8 8 8 8 8 8 8 8 8 8 8 8 8 9 10 10 11 11 12 12 13 14 14 15 15 15 16 16 16 16 16 16 16 16 17
27 26 25 24 24 23 22 22 21 20 19 18 18 18 17 16 16 15 15 14 13 13 12 12 12 12 11 11 11 10 10 9 9 8 8 8 8 8 8 8 9 9 9 9 9 9 10 10 11 12 12 13 13 14 15 15 16 16 17 17 17 17 17 17 18 18 18 17 17
25 24 23 23 22 21 21 20 19 18 18 17 17 16 16 15 15 14 14 13 12 12 12 12 11 11 11 10 10 9 9 8 8 8 8 8 8 8 8 8 9 9 9 10 10 10 10 11 12 12 13 14 14 15 15 16 17 18 18 18 18 18 18 18 18 18 18 18 18
23 22 22 21 20 20 19 18 18 17 17 17 16 15 15 15 14 13 12 12 12 12 11 11 11 10 10 9 9 8 8 7 7 7 7 7 7 8 8 8 9 9 10 10 10 10 11 12 12 13 13 14 15 15 16 17 17 18 18 19 19 19 19 19 19 19 19 19 19
22 21 20 20 19 19 18 17 17 17 16 16 15 15 14 13 13 12 11 11 11 11 10 10 9 9 8 8 8 7 7 7 7 7 7 7 7 8 8 8 9 9 10 10 10 10 11 12 13 13 14 14 15 16 16 17 17 18 18 18 19 19 19 19 19 19 19 19 20
20 20 19 19 18 18 17 17 17 16 16 15 14 14 13 12 12 11 10 10 10 10 9 9 8 8 8 8 8 8 8 8 8 8 8 8 9 9 9 10 10 10 10 10 10 10 10 11 12 13 14 15 15 16 17 17 17 17 17 18 18 19 19 20 20 19 20 20 20
19 19 18 18 17 17 17 17 16 16 15 14 14 13 12 12 11 10 10 9 9 9 9 8 8 8 8 8 8 8 9 9 9 10 10 10 11 11 11 11 11 12 12 11 11 11 11 12 13 13 14 15 16 17 17 17 17 17 17 17 18 18 19 20 20 21 21 21 21
18 18 18 17 17 17 17 16 15 15 15 14 13 13 12 11 10 10 9 9 9 9 9 9 9 9 9 9 9 9 10 10 10 11 11 11 12 12 12 13 13 13 13 13 12 12 12 13 14 14 14 15 16 17 18 18 18 18 17 18 18 18 19 20 21 21 22 22 21
18 17 16 16 16 16 16 15 15 15 14 14 13 12 11 10 10 9 9 9 9 9 9 9 9 9 9 10 10 10 10 11 11 11 12 12 12 13 13 14 14 14 14 13 13 13 13 14 15 15 15 15 16 17 17 17 17 17 17 18 18 19 19 20 20 21 21 21 21
17 16 15 15 15 15 15 15 15 14 14 13 12 11 10 10 9 9 9 9 9 9 10 10 10 10 10 11 11 11 11 12 12 12 13 13 14 14 14 15 15 15 14 14 13 13 14 14 15 15 15 15 16 16 16 16 16 17 17 18 18 19 19 19 20 20 20 21 21
15 15 15 15 15 14 14 14 14 14 13 12 11 11 10 10 10 10 10 10 10 10 10 11 11 11 12 12 12 13 13 13 13 13 14 14 14 15 15 15 15 15 14 14 14 14 14 15 16 16 16 16 16 16 15 15 16 16 17 18 18 18 19 19 20 20 20 21 21
15 14 14 14 14 14 14 14 14 13 13 12 12 12 12 12 11 11 11 11 11 12 12 12 13 13 13 13 14 14 14 14 14 14 14 14 15 15 15 15 15 15 14 14 14 14 15 15 16 16 16 16 16 15 15 15 16 16 17 18 18 18 19 19 19 20 20 21 21
14 14 14 14 14 14 13 13 13 13 13 13 13 14 13 13 13 12 12 13 13 13 14 14 15 15 15 15 15 15 14 14 14 14 13 14 14 15 15 15 15 14 14 14 14 14 15 15 16 16 16 16 16 15 15 15 16 17 17 18 18 18 19 19 19 20 20 21 21
14 14 13 13 13 13 13 13 13 14 14 15 15 15 16 15 15 14 14 15 15 15 15 16 16 16 16 16 16 15 15 14 13 13 13 13 13 14 14 14 14 14 14 14 14 14 15 15 15 16 16 16 15 15 15 16 16 17 17 18 18 18 18 19 20 20 21 21 21
13 13 13 13 13 13 13 14 14 15 16 16 17 17 17 17 17 16 16 16 16 16 16 16 16 16 16 15 15 15 15 14 13 13 12 12 13 14 14 15 14 14 14 14 14 14 15 15 15 16 16 16 15 15 16 16 17 17 18 18 18 18 19 19 19 20 20 20 21
13 13 13 13 13 14 14 15 16 16 17 18 18 18 18 18 18 17 17 17 16 16 16 16 15 15 15 15 14 14 14 14 13 12 12 12 13 14 15 15 15 14 14 14 14 14 15 15 15 15 16 15 15 16 16 16 17 17 18 18 18 19 19 19 19 19 20 20 20
13 13 14 14 15 15 16 16 17 17 18 19 19 19 19 18 18 17 17 17 17 16 16 16 16 15 15 15 14 14 14 13 13 13 13 13 13 14 16 16 16 15 14 14 14 14 14 15 15 15 15 16 16 16 16 17 17 17 17 18 19 19 19 19 19 20 20 20 21
14 14 15 15 16 16 16 17 17 18 18 19 19 19 18 18 18 17 17 17 17 17 17 17 16 16 15 15 15 14 14 13 13 13 13 13 14 15 16 17 17 16 15 14 14 14 14 15 15 15 15 16 16 16 16 17 17 17 17 18 18 19 19 19 19 20 20 20 20
15 15 15 15 16 16 16 16 17 17 18 18 18 18 18 18 18 17 17 17 17 17 17 17 17 16 16 15 15 15 14 13 13 14 14 14 14 15 16 17 17 16 15 15 14 14 14 14 15 15 15 16 16 16 16 16 16 17 17 18 18 19 19 19 19 19 20 20 20
15 15 15 15 15 15 15 15 16 16 16 17 17 17 17 17 17 17 17 16 16 16 17 17 17 16 16 15 16 16 15 14 13 13 14 15 15 15 16 17 17 17 16 15 15 14 14 15 15 15 15 15 16 16 16 16 16 17 17 18 18 19 19 19 19 20 20 20 20
15 14 14 14 14 14 14 14 15 15 15 16 16 16 16 17 17 17 17 17 16 16 16 17 17 16 16 15 16 16 16 16 15 14 14 15 15 16 16 17 17 17 16 15 15 14 14 15 15 15 15 15 16 16 16 16 17 17 17 18 19 19 20 20 20 20 21 21 21
14 14 14 13 13 13 13 14 14 14 14 15 15 15 16 16 17 17 17 17 17 16 16 16 16 16 16 15 15 16 17 17 16 16 15 16 16 16 16 16 17 17 16 16 15 15 15 15 15 15 15 15 15 16 16 16 17 17 18 18 19 20 20 21 21 21 21 22 22
Wind_Direction
232 233 231 228 222 203 160 133 132 140 149 157 170 188 196 193 169 148 147 155 157 155 145 126 119 127 137 135 117 107 107 115 127 146 168 184 181 171 163 158 158 165 173 178 185 197 214 230 243 254 264 275 287 297 304 308 308 305 301 298 298 298 297 292 287 285 288 292 296
138 149 160 162 153 133 115 107 104 104 106 109 113 119 120 111 102 102 107 111 111 111 112 112 115 118 120 116 116 123 140 161 172 181 189 196 184 174 171 179 199 219 226 226 226 230 236 242 248 256 263 273 282 290 296 298 298 295 292 292 296 301 303 303 300 296 292 290 289
112 114 117 119 119 115 109 105 105 104 103 104 106 108 106 102 101 104 106 108 110 111 111 110 110 111 114 120 130 144 157 168 175 182 187 188 174 177 197 219 234 243 247 246 247 248 250 252 254 256 259 266 277 288 294 293 290 288 286 287 290 295 300 304 306 308 307 303 298
103 103 103 103 104 104 104 105 107 106 105 105 106 106 106 105 105 107 109 110 110 109 107 104 103 104 109 117 128 139 150 159 164 166 163 160 172 194 215 230 239 245 250 251 252 253 255 256 257 257 258 262 276 292 298 293 288 285 284 285 286 289 291 294 298 303 306 306 305
98 98 96 96 97 99 102 106 107 107 106 106 106 105 105 105 106 106 106 103 100 98 98 97 96 97 102 110 121 133 142 147 145 146 152 168 188 206 219 230 238 245 249 251 251 252 253 254 256 256 256 257 264 280 292 291 287 286 286 286 287 287 287 287 288 289 292 295 297
93 94 94 94 95 97 100 103 105 105 105 105 104 102 101 101 102 101 98 96 95 94 93 93 95 99 107 117 128 137 141 142 144 150 162 178 195 209 221 231 237 242 246 248 249 251 253 255 257 258 258 257 257 261 267 274 281 286 290 293 295 296 295 294 293 292 290 289 290
93 94 95 95 96 97 97 99 101 102 102 101 100 99 98 98 98 97 96 96 96 97 99 102 107 114 120 127 131 134 137 139 145 154 165 179 196 210 220 229 236 241 245 249 254 257 261 263 265 267 266 265 263 261 262 265 271 277 285 292 297 301 303 304 304 301 297 292 288
93 94 95 97 98 97 96 96 97 98 98 97 97 97 98 98 99 99 100 101 101 104 109 113 116 120 124 126 125 125 126 128 134 146 161 176 194 211 225 235 243 249 254 259 263 266 268 269 272 273 274 275 273 271 268 266 266 267 269 273 278 284 292 299 300 299 298 295 291
90 91 94 96 97 96 96 95 95 96 96 96 97 98 100 101 102 104 104 104 106 109 112 112 113 116 119 118 115 113 112 113 116 125 143 167 190 220 244 254 261 266 269 272 273 274 275 276 277 276 276 278 281 281 278 275 272 269 268 269 270 272 272 273 277 283 288 291 291
89 91 93 94 95 96 96 96 96 97 98 98 99 101 103 104 105 105 104 105 108 108 106 103 106 108 109 106 103 99 98 97 97 96 96 98 311 301 297 293 293 291 289 287 285 284 284 285 286 286 285 284 286 288 287 287 286 283 280 279 278 278 276 273 274 276 279 282 284
93 94 95 96 97 98 98 98 98 98 99 99 100 100 101 100 100 100 102 104 104 100 96 95 96 97 96 92 87 82 78 73 65 52 30 3 337 324 318 312 307 305 303 300 298 297 297 297 297 298 298 297 296 296 296 296 296 295 293 291 289 287 286 284 285 284 283 283 285
97 98 99 100 102 103 103 101 100 99 98 98 97 96 94 93 93 95 97 99 96 92 89 87 85 85 83 79 73 66 58 48 33 15 359 346 332 323 316 311 308 306 306 305 304 304 304 304 303 303 303 303 303 302 302 300 299 298 298 297 296 295 295 295 295 294 290 287 287
102 102 102 104 105 105 104 102 99 97 96 95 93 91 90 89 89 90 91 90 88 86 83 81 79 76 73 70 64 57 48 36 19 2 349 339 330 323 317 312 309 309 308 307 306 305 306 305 304 304 304 304 304 304 303 302 301 301 302 302 302 302 302 303 303 301 295 288 283
104 104 103 103 103 102 100 97 94 93 91 91 89 88 88 87 85 85 84 83 82 80 79 77 76 73 69 66 62 57 51 43 34 25 18 8 356 347 340 334 329 326 323 319 316 314 313 311 309 307 306 305 305 305 304 304 303 303 304 307 308 308 307 307 309 307 302 296 290
101 100 100 99 97 96 94 91 90 88 88 87 86 86 85 84 82 81 80 80 79 78 77 77 76 74 72 70 68 66 64 61 57 55 51 47 40 32 24 17 9 3 355 348 341 335 330 325 320 317 312 310 308 307 307 306 305 305 305 306 307 307 307 307 308 307 305 302 298
96 95 94 94 93 91 90 88 87 86 85 85 84 84 83 83 82 81 80 80 80 80 80 79 79 79 78 77 76 74 74 72 68 65 62 58 54 49 43 37 31 26 20 13 7 359 349 340 333 328 323 321 318 316 315 313 311 309 307 306 305 305 304 304 305 305 303 302 300
91 91 91 90 89 88 88 87 87 86 86 86 85 85 85 85 84 84 83 83 83 84 84 83 83 83 83 82 79 77 76 73 70 66 63 59 55 51 47 43 37 33 27 22 17 12 6 357 349 342 337 334 331 329 326 323 320 317 314 311 308 307 305 305 304 303 302 301 299
89 89 89 89 89 88 89 89 89 89 88 88 88 88 88 87 87 87 87 87 87 86 86 86 86 85 83 81 78 75 73 69 66 63 58 55 51 47 44 40 36 31 26 21 17 13 10 5 0 355 350 346 342 339 335 332 328 325 322 319 316 314 312 310 308 306 304 302 301
89 89 89 89 89 90 90 91 91 90 90 90 90 90 90 89 89 89 89 88 87 87 86 86 84 82 79 76 73 70 66 62 59 56 52 47 43 39 35 32 28 23 19 15 11 7 5 3 1 358 354 349 345 342 338 335 332 329 327 325 323 321 319 317 315 312 309 306 304
89 89 89 89 90 91 91 90 90 90 90 90 90 90 89 88 88 87 86 84 84 83 82 80 78 75 72 69 65 61 57 53 49 46 42 37 31 27 22 19 16 13 9 6 2 360 359 359 358 356 353 348 344 340 337 334 332 330 328 326 325 324 322 321 319 317 314 311 309
88 88 88 89 89 89 89 88 89 89 89 88 87 86 85 84 83 81 80 79 78 76 74 70 68 65 62 58 55 51 47 43 39 34 30 25 20 15 11 7 4 1 358 355 353 352 352 354 353 352 348 344 340 337 334 332 330 328 326 325 324 323 322 321 319 318 316 314 312
87 88 88 88 87 87 87 87 87 86 85 84 83 82 80 79 77 75 73 72 70 66 63 60 56 53 50 47 44 41 39 34 30 25 20 15 11 7 3 359 355 353 350 349 347 347 348 348 348 346 343 339 335 333 331 329 327 326 324 322 321 320 319 319 318 317 316 315 313
87 87 87 86 86 85 84 84 83 83 81 80 78 77 75 73 71 69 68 65 62 59 56 53 49 46 43 39 36 32 29 26 23 19 15 10 5 2 358 354 351 349 347 345 345 345 346 344 343 340 337 334 331 329 327 325 324 322 321 319 318 317 316 316 315 315 314 313 311
86 85 84 83 82 81 80 79 78 76 75 73 72 71 70 69 67 65 62 59 57 54 52 49 47 43 40 35 30 24 18 14 12 11 8 5 1 357 354 351 349 347 345 344 346 349 348 342 338 334 332 329 327 325 323 322 320 319 318 317 316 315 315 314 313 312 312 310 309
81 80 79 77 76 75 73 72 70 69 67 66 65 65 64 63 61 59 57 55 52 49 47 45 42 38 34 29 24 17 11 7 3 1 360 358 356 354 351 349 347 346 344 344 348 350 347 339 332 329 326 325 323 322 320 319 318 317 317 316 315 314 314 313 312 311 310 310 309
75 73 71 70 69 68 66 64 63 62 61 59 58 57 55 54 52 50 48 46 44 41 38 35 31 27 23 19 14 11 7 3 360 357 355 353 351 350 349 348 347 345 345 346 348 346 339 332 327 325 324 323 322 321 320 319 318 317 317 316 315 314 314 313 312 312 311 310 310
68 67 65 65 64 62 60 58 57 56 54 52 50 48 46 44 42 40 38 37 34 31 28 24 21 18 14 9 7 4 3 360 357 354 352 350 348 347 347 346 346 346 346 348 347 343 336 330 327 326 326 325 323 322 320 319 319 318 317 316 315 314 313 312 312 312 312 311 311
64 63 62 62 61 59 57 55 53 50 48 45 43 41 39 36 34 33 31 29 26 23 20 17 14 11 7 4 3 2 360 357 354 352 350 347 346 346 345 345 345 345 346 347 346 342 337 332 329 328 327 326 324 322 320 319 318 317 316 315 314 313 311 311 310 310 310 310 310
62 61 60 60 58 57 54 52 49 47 44 42 39 37 34 32 30 28 26 23 20 18 15 12 8 6 4 2 1 359 358 356 353 350 348 346 344 344 344 344 343 344 344 345 345 343 339 334 330 328 327 326 324 322 320 318 316 314 313 311 310 309 309 308 307 307 306 306 306
60 59 58 57 56 54 52 49 46 44 41 38 36 34 32 31 28 25 23 20 18 16 12 7 4 3 2 0 358 356 355 354 352 349 346 344 343 342 342 342 342 342 343 343 343 341 337 332 329 327 326 325 323 321 318 315 313 311 309 308 307 306 305 304 303 302 302 302 302
56 55 54 54 52 51 48 46 43 40 36 34 32 31 30 29 27 24 20 17 15 12 8 4 2 1 360 357 355 353 352 351 350 348 346 344 341 340 339 340 341 341 342 343 342 339 334 329 326 325 324 323 321 318 315 312 310 308 306 304 303 303 302 301 300 299 299 299 299
51 50 49 48 47 46 43 41 38 35 32 29 28 27 27 26 25 21 17 13 10 7 5 2 360 357 356 353 351 350 349 349 348 347 345 342 339 337 337 339 340 342 343 343 340 334 329 326 323 322 321 320 318 316 313 310 308 305 303 302 301 300 300 299 299 298 297 298 297
45 43 42 42 41 40 37 34 32 29 27 26 25 23 22 20 18 16 12 9 6 4 2 360 357 354 352 350 348 347 347 347 346 345 343 341 338 336 336 338 341 343 344 341 335 329 325 323 321 319 318 318 316 313 311 308 306 304 303 301 300 300 300 300 298 297 297 296 296
39 37 35 34 33 32 30 28 25 23 21 21 20 19 17 14 12 10 7 4 2 360 358 356 354 351 349 347 345 344 344 344 344 344 343 340 337 335 335 337 340 344 343 337 330 325 322 319 318 317 317 316 314 312 310 308 306 304 302 301 300 300 300 299 298 297 296 295 295
32 30 29 27 25 24 22 21 19 17 16 15 15 14 12 10 8 5 2 358 356 354 353 351 349 347 346 344 344 343 342 342 342 341 341 339 336 334 333 334 338 343 343 336 328 323 319 317 316 315 316 315 313 311 309 307 306 304 302 301 301 300 300 299 298 296 295 294 294
25 23 21 20 18 17 15 14 13 11 11 11 10 8 7 6 4 1 357 353 350 349 347 346 345 345 344 343 342 341 341 340 339 338 338 337 335 333 331 332 336 340 342 337 328 321 318 316 315 315 315 313 312 310 309 307 305 303 302 302 301 301 301 300 299 298 296 295 294
18 16 14 13 12 11 9 8 7 7 7 7 6 4 2 1 359 357 354 350 347 344 342 342 342 342 341 340 338 338 338 337 335 334 334 334 333 330 329 329 332 337 340 337 328 321 318 316 314 314 314 313 311 310 309 307 305 304 303 303 302 302 302 301 300 299 298 296 296
12 9 7 6 5 4 4 3 2 2 2 1 0 359 358 357 356 354 351 348 343 339 337 336 336 336 336 336 334 332 333 333 332 330 329 330 329 328 326 325 328 333 336 335 327 321 317 314 312 313 313 312 311 311 310 308 306 305 305 304 304 304 303 302 302 301 300 298 297
5 3 1 360 359 358 357 357 357 356 355 354 353 353 353 352 351 349 347 344 340 335 331 330 329 330 331 331 329 327 327 328 328 327 326 326 326 325 323 321 323 328 332 332 326 320 315 311 311 312 313 312 312 311 310 309 308 307 306 306 306 306 305 304 303 302 301 300 299
358 356 354 353 352 351 350 350 350 349 348 347 347 346 346 346 345 344 343 340 336 332 328 325 324 325 326 325 324 322 322 323 324 325 324 323 323 323 320 318 319 323 328 330 326 320 314 311 311 312 313 313 312 312 311 311 309 308 307 307 307 307 307 306 305 304 303 302 301
352 349 348 346 345 344 342 342 341 341 341 340 340 340 339 339 339 338 337 335 332 328 325 322 321 321 321 320 319 318 318 319 321 323 324 323 322 321 319 318 318 321 326 329 327 320 314 310 310 312 313 313 313 313 313 312 311 309 308 308 308 308 308 308 307 305 304 304 303